Weather History for Sparta, IL

Change the Weather History Date:

Tuesday, January 17, 2012

  Actual Average (KBLV) Record (KBLV)
Temperature  
Mean Temperature 47 °F -  
Max Temperature 64 °F 38 °F 74 °F (1952)
Min Temperature 30 °F 21 °F -27 °F (1977)
Degree Days  
Heating Degree Days 18    
Moisture  
Dew Point 42 °F    
Average Humidity 82    
Maximum Humidity 100    
Minimum Humidity 69    
Precipitation  
Precipitation 0.42 in - - ()
Sea Level Pressure  
Sea Level Pressure 29.89 in    
Wind  
Wind Speed 16 mph (West)    
Max Wind Speed 33 mph    
Max Gust Speed 51 mph    
Visibility 10 miles    
Events Rain , Thunderstorm    
Averages and records for this station are not official NWS values.
T = Trace of Precipitation, MM = Missing Value Source: NWS Daily Summary

Daily Weather History Graph

Daily Weather History Graph

Search for Another Location

Airport:

Trip Planner

Search our weather history database for the weather conditions in past years. The results will help you decide how hot, cold, wet, or windy it might be!

Date:

Astronomy

Jan. 17, 2012 Rise Set
Actual Time 7:13 AM CST 5:04 PM CST
Civil Twilight 6:44 AM CST 5:33 PM CST
Nautical Twilight 6:12 AM CST 6:05 PM CST
Astronomical Twilight 5:40 AM CST 6:37 PM CST
Moon 1:33 AM CST (1/17) 11:57 AM CST (1/17)
Length of Visible Light 10h 48m
Length of Day
9h 51m
Waning Crescent, 35% of the Moon is Illuminated
Jan 17
Waning Crescent
Jan 23
New
Jan 30
First Quarter
Feb 7
Full
Feb 14
Last Quarter

Hourly Weather History & Observations

Time (CST) Temp. Windchill Dew Point Humidity Pressure Visibility Wind Dir Wind Speed Gust Speed Precip Events Conditions
12:15 AM 62.6 °F - 57.2 °F 82% 29.73 in 10.0 mi South 12.7 mph 18.4 mph N/A   Overcast
12:35 AM 62.6 °F - 57.2 °F 82% 29.72 in 10.0 mi South 15.0 mph 20.7 mph N/A   Overcast
12:55 AM 62.6 °F - 57.2 °F 82% 29.71 in 10.0 mi South 12.7 mph 19.6 mph N/A   Overcast
1:15 AM 62.6 °F - 57.2 °F 82% 29.70 in 10.0 mi South 12.7 mph 21.9 mph N/A   Mostly Cloudy
1:35 AM 62.6 °F - 59.0 °F 88% 29.69 in 10.0 mi South 16.1 mph 25.3 mph N/A   Scattered Clouds
1:55 AM 62.6 °F - 59.0 °F 88% 29.67 in 10.0 mi South 19.6 mph 29.9 mph N/A   Scattered Clouds
2:15 AM 62.6 °F - 59.0 °F 88% 29.66 in 10.0 mi South 17.3 mph 27.6 mph N/A   Scattered Clouds
2:35 AM 62.6 °F - 59.0 °F 88% 29.66 in 10.0 mi South 18.4 mph 28.8 mph N/A   Scattered Clouds
2:55 AM 62.6 °F - 57.2 °F 82% 29.65 in 10.0 mi South 18.4 mph 28.8 mph N/A   Scattered Clouds
3:15 AM 62.6 °F - 59.0 °F 88% 29.65 in 10.0 mi South 19.6 mph 26.5 mph N/A   Clear
3:35 AM 62.6 °F - 59.0 °F 88% 29.64 in 10.0 mi South 18.4 mph 23.0 mph N/A   Clear
3:55 AM 62.6 °F - 57.2 °F 82% 29.65 in 10.0 mi SSW 13.8 mph 21.9 mph N/A   Clear
4:15 AM 62.6 °F - 59.0 °F 88% 29.65 in 10.0 mi SSW 10.4 mph 18.4 mph N/A   Scattered Clouds
4:35 AM 62.6 °F - 59.0 °F 88% 29.65 in 10.0 mi SSW 10.4 mph - N/A   Scattered Clouds
4:55 AM 62.6 °F - 59.0 °F 88% 29.65 in 10.0 mi SSW 9.2 mph - N/A   Scattered Clouds
5:15 AM 62.6 °F - 59.0 °F 88% 29.64 in 10.0 mi South 13.8 mph - N/A Thunderstorm Scattered Clouds
5:35 AM 64.4 °F - 59.0 °F 83% 29.65 in 10.0 mi SSW 12.7 mph 19.6 mph N/A   Scattered Clouds
5:55 AM 64.4 °F - 59.0 °F 83% 29.65 in 10.0 mi SSW 12.7 mph 18.4 mph N/A   Scattered Clouds
6:15 AM 59.0 °F - 53.6 °F 82% 29.67 in 4.0 mi WNW 33.4 mph 50.6 mph 0.04 in Rain Rain
6:35 AM 55.4 °F - 53.6 °F 94% 29.72 in 10.0 mi West 16.1 mph 33.4 mph 0.40 in Rain , Thunderstorm Thunderstorms and Rain
6:55 AM 55.4 °F - 53.6 °F 94% 29.73 in 10.0 mi West 12.7 mph 19.6 mph 0.41 in Rain , Thunderstorm Light Thunderstorms and Rain
7:15 AM 53.6 °F - 53.6 °F 100% 29.74 in 10.0 mi West 21.9 mph 31.1 mph 0.01 in   Overcast
7:35 AM 50.0 °F - 48.2 °F 94% 29.76 in 10.0 mi West 21.9 mph 33.4 mph 0.01 in   Overcast
7:55 AM 51.8 °F - 46.4 °F 82% 29.78 in 10.0 mi West 23.0 mph 32.2 mph 0.01 in   Overcast
8:15 AM 48.2 °F - 46.4 °F 93% 29.83 in 10.0 mi WNW 18.4 mph 29.9 mph N/A   Mostly Cloudy
8:35 AM 46.4 °F 39.0 °F 42.8 °F 87% 29.85 in 10.0 mi WNW 19.6 mph 29.9 mph N/A   Overcast
8:55 AM 44.6 °F 38.1 °F 41.0 °F 87% 29.89 in 10.0 mi WNW 13.8 mph 19.6 mph N/A   Overcast
9:15 AM 42.8 °F 34.5 °F 39.2 °F 87% 29.90 in 10.0 mi WNW 18.4 mph 34.5 mph N/A   Overcast
9:35 AM 42.8 °F 35.1 °F 37.4 °F 81% 29.92 in 10.0 mi West 16.1 mph 24.2 mph N/A   Overcast
9:55 AM 42.8 °F 34.3 °F 37.4 °F 81% 29.94 in 10.0 mi WNW 19.6 mph 28.8 mph N/A   Overcast
10:15 AM 41.0 °F 31.9 °F 35.6 °F 81% 29.96 in 10.0 mi WNW 19.6 mph 27.6 mph N/A   Overcast
10:35 AM 39.2 °F 29.8 °F 35.6 °F 87% 29.97 in 10.0 mi WNW 18.4 mph 24.2 mph N/A   Overcast
10:55 AM 39.2 °F 29.6 °F 33.8 °F 81% 30.00 in 10.0 mi WNW 19.6 mph 26.5 mph N/A   Overcast
11:15 AM 37.4 °F 27.8 °F 32.0 °F 81% 30.01 in 10.0 mi WNW 17.3 mph 28.8 mph N/A   Overcast
11:35 AM 37.4 °F 28.2 °F 32.0 °F 81% 30.03 in 10.0 mi WNW 16.1 mph 27.6 mph N/A   Overcast
11:55 AM 35.6 °F 25.2 °F 30.2 °F 81% 30.04 in 10.0 mi West 18.4 mph 26.5 mph N/A   Overcast
12:15 PM 35.6 °F 25.2 °F 30.2 °F 81% 30.04 in 10.0 mi West 18.4 mph 27.6 mph N/A   Overcast
12:35 PM 35.6 °F 27.5 °F 30.2 °F 81% 30.05 in 10.0 mi WNW 11.5 mph 21.9 mph N/A   Overcast
12:55 PM 33.8 °F 23.9 °F 28.4 °F 81% 30.07 in 10.0 mi NW 15.0 mph 26.5 mph N/A   Overcast
1:15 PM 33.8 °F 22.8 °F 26.6 °F 75% 30.08 in 10.0 mi NW 18.4 mph 27.6 mph N/A   Overcast
1:35 PM 33.8 °F 22.8 °F 26.6 °F 75% 30.08 in 10.0 mi WNW 18.4 mph 27.6 mph N/A   Overcast
1:55 PM 33.8 °F 23.9 °F 26.6 °F 75% 30.10 in 10.0 mi WNW 15.0 mph 21.9 mph N/A   Overcast
2:15 PM 33.8 °F 23.5 °F 26.6 °F 75% 30.10 in 10.0 mi West 16.1 mph 23.0 mph N/A   Overcast
2:35 PM 33.8 °F 23.9 °F 26.6 °F 75% 30.11 in 10.0 mi WNW 15.0 mph 20.7 mph N/A   Overcast
2:55 PM 33.8 °F 24.3 °F 26.6 °F 75% 30.13 in 10.0 mi WNW 13.8 mph 19.6 mph N/A   Overcast
3:15 PM 33.8 °F 24.8 °F 26.6 °F 75% 30.14 in 10.0 mi WNW 12.7 mph 19.6 mph N/A   Mostly Cloudy
3:35 PM 33.8 °F 23.5 °F 24.8 °F 70% 30.15 in 10.0 mi NW 16.1 mph 27.6 mph N/A   Scattered Clouds
3:55 PM 33.8 °F 23.5 °F 26.6 °F 75% 30.16 in 10.0 mi WNW 16.1 mph 23.0 mph N/A   Mostly Cloudy
4:15 PM 32.0 °F 21.6 °F 24.8 °F 75% 30.17 in 10.0 mi NW 15.0 mph 23.0 mph N/A   Mostly Cloudy
4:35 PM - - - N/A% - - North - - N/A   Unknown
4:55 PM 30.2 °F 19.3 °F 24.8 °F 80% 30.20 in 10.0 mi WNW 15.0 mph 27.6 mph N/A   Unknown
5:15 PM 30.2 °F 19.3 °F 23.0 °F 75% 30.20 in 10.0 mi WNW 15.0 mph 25.3 mph N/A   Overcast
5:35 PM 30.2 °F 19.8 °F 23.0 °F 75% 30.22 in 10.0 mi NW 13.8 mph 21.9 mph N/A   Overcast
5:55 PM 30.2 °F 19.8 °F 21.2 °F 69% 30.23 in 10.0 mi NW 13.8 mph 23.0 mph N/A   Overcast
6:15 PM 30.2 °F 19.8 °F 21.2 °F 69% 30.24 in 10.0 mi NW 13.8 mph 24.2 mph N/A   Overcast
6:35 PM 30.2 °F 21.3 °F 21.2 °F 69% 30.25 in 10.0 mi NW 10.4 mph 16.1 mph N/A   Overcast
6:55 PM 28.4 °F 19.7 °F 21.2 °F 74% 30.26 in 10.0 mi WNW 9.2 mph 17.3 mph N/A   Mostly Cloudy
7:15 PM 28.4 °F 20.4 °F 21.2 °F 74% 30.28 in 10.0 mi WNW 8.1 mph - N/A   Overcast
7:35 PM 28.4 °F 18.0 °F 19.4 °F 69% 30.29 in 10.0 mi NW 12.7 mph 18.4 mph N/A   Scattered Clouds
7:55 PM 28.4 °F 19.1 °F 19.4 °F 69% 30.30 in 10.0 mi NW 10.4 mph 17.3 mph N/A   Mostly Cloudy
8:15 PM 28.4 °F 20.4 °F 21.2 °F 74% 30.30 in 10.0 mi NW 8.1 mph 16.1 mph N/A   Overcast
8:35 PM 28.4 °F 19.7 °F 21.2 °F 74% 30.31 in 10.0 mi NW 9.2 mph - N/A   Overcast
8:55 PM 28.4 °F 18.5 °F 19.4 °F 69% 30.31 in 10.0 mi NW 11.5 mph 16.1 mph N/A   Mostly Cloudy
9:15 PM 28.4 °F 19.1 °F 19.4 °F 69% 30.32 in 10.0 mi NW 10.4 mph 16.1 mph N/A   Mostly Cloudy
9:35 PM 26.6 °F 18.2 °F 19.4 °F 74% 30.33 in 10.0 mi NW 8.1 mph 18.4 mph N/A   Scattered Clouds
9:55 PM 26.6 °F 15.7 °F 19.4 °F 74% 30.33 in 10.0 mi NW 12.7 mph - N/A   Clear
10:15 PM 26.6 °F 16.8 °F 17.6 °F 69% 30.33 in 10.0 mi NW 10.4 mph - N/A   Clear
10:35 PM 26.6 °F 18.2 °F 19.4 °F 74% 30.33 in 10.0 mi NW 8.1 mph - N/A   Clear
10:55 PM 26.6 °F 17.5 °F 19.4 °F 74% 30.33 in 10.0 mi NW 9.2 mph - N/A   Clear
11:15 PM 24.8 °F 16.9 °F 19.4 °F 80% 30.34 in 10.0 mi NW 6.9 mph - N/A   Scattered Clouds
11:35 PM 24.8 °F 17.9 °F 19.4 °F 80% 30.33 in 10.0 mi NNW 5.8 mph - N/A   Mostly Cloudy
11:55 PM 24.8 °F 16.1 °F 19.4 °F 80% 30.33 in 10.0 mi NNW 8.1 mph - N/A   Scattered Clouds